Weather History for Chatham, MA

Change the Weather History Date:

Sunday, February 17, 2013

  Actual Average Record
Temperature  
Mean Temperature 28 °F -  
Max Temperature 36 °F 37 °F 52 °F (2006)
Min Temperature 21 °F 25 °F 5 °F (1979)
Degree Days  
Heating Degree Days 36    
Moisture  
Dew Point 20 °F    
Average Humidity 81    
Maximum Humidity 93    
Minimum Humidity 40    
Precipitation  
Precipitation 0.41 in - - ()
Sea Level Pressure  
Sea Level Pressure 29.36 in    
Wind  
Wind Speed 15 mph (NW)    
Max Wind Speed 22 mph    
Max Gust Speed 44 mph    
Visibility 2 miles    
Events Fog , Snow    
Averages and records for this station are not official NWS values.
T = Trace of Precipitation, MM = Missing Value Source: NWS Daily Summary

Daily Weather History Graph

Daily Weather History Graph

Search for Another Location

Airport:

Trip Planner

Search our weather history database for the weather conditions in past years. The results will help you decide how hot, cold, wet, or windy it might be!

Date:

Astronomy

Feb. 17, 2013 Rise Set
Actual Time 6:32 AM EST 5:16 PM EST
Civil Twilight 6:03 AM EST 5:44 PM EST
Nautical Twilight 5:31 AM EST 6:17 PM EST
Astronomical Twilight 4:59 AM EST 6:49 PM EST
Moon 10:16 AM EST (2/17) 12:15 AM EST (2/17)
Length of Visible Light 11h 40m
Length of Day
10h 43m
Waxing Crescent, 49% of the Moon is Illuminated
Feb 17
Waxing Crescent
Feb 17
First Quarter
Feb 25
Full
Mar 4
Last Quarter
Mar 11
New

Hourly Weather History & Observations

Time (EST) Temp. Windchill Dew Point Humidity Pressure Visibility Wind Dir Wind Speed Gust Speed Precip Events Conditions
12:52 AM 36.0 °F 27.5 °F 30.9 °F 82% 29.60 in 10.0 mi NNE 12.7 mph 28.8 mph 0.00 in   Overcast
1:52 AM 35.1 °F 26.4 °F 30.0 °F 82% 29.57 in 10.0 mi NNE 12.7 mph 28.8 mph 0.00 in   Overcast
2:52 AM 34.0 °F 26.6 °F 30.0 °F 85% 29.50 in 4.0 mi North 9.2 mph 25.3 mph 0.00 in Snow Light Snow
3:29 AM 33.8 °F 25.8 °F 30.2 °F 87% 29.46 in 2.0 mi North 10.4 mph 25.3 mph 0.01 in Snow Light Snow
3:34 AM 33.8 °F 24.3 °F 30.2 °F 87% 29.46 in 1.8 mi North 13.8 mph 25.3 mph 0.01 in Snow Light Snow
3:52 AM 32.0 °F 23.0 °F 30.0 °F 92% 29.46 in 1.2 mi North 11.5 mph 24.2 mph 0.01 in Snow Light Snow
4:52 AM 30.9 °F 21.2 °F 28.9 °F 92% 29.42 in 1.0 mi North 12.7 mph 26.5 mph 0.02 in Snow Light Snow
5:36 AM 30.2 °F 20.2 °F 28.4 °F 93% 29.37 in 0.8 mi North 12.7 mph 28.8 mph 0.02 in Snow Light Snow
5:52 AM 30.0 °F 19.1 °F 28.0 °F 92% 29.36 in 0.8 mi North 15.0 mph 31.1 mph 0.03 in Snow Light Snow
6:06 AM 28.4 °F 18.0 °F 26.6 °F 93% 29.33 in 1.0 mi North 12.7 mph 31.1 mph 0.00 in Snow Light Snow
6:17 AM 28.4 °F 18.0 °F 26.6 °F 93% 29.33 in 0.8 mi North 12.7 mph 32.2 mph 0.01 in Snow Light Snow
6:52 AM 28.0 °F 15.7 °F 26.1 °F 92% 29.33 in 0.8 mi NNW 17.3 mph 35.7 mph 0.03 in Snow Light Snow
7:20 AM 26.6 °F 12.4 °F 24.8 °F 93% 29.29 in 0.5 mi North 21.9 mph 36.8 mph 0.01 in Fog , Snow Light Snow
7:35 AM 26.6 °F 13.4 °F 24.8 °F 93% 29.28 in 0.2 mi North 18.4 mph 40.3 mph 0.02 in Fog , Snow Snow
7:45 AM 26.6 °F 14.7 °F 24.8 °F 93% 29.28 in 0.5 mi NNW 15.0 mph 35.7 mph 0.02 in Fog , Snow Light Snow
7:52 AM 27.0 °F 13.2 °F 24.1 °F 89% 29.29 in 0.5 mi NNW 20.7 mph 36.8 mph 0.02 in Fog , Snow Light Snow
8:11 AM 26.6 °F 13.1 °F 24.8 °F 93% 29.27 in 0.5 mi NNW 19.6 mph 38.0 mph 0.01 in Fog , Snow Snow
8:25 AM 26.6 °F 14.7 °F 24.8 °F 93% 29.26 in 0.5 mi NNW 15.0 mph 33.4 mph 0.01 in Fog , Snow Snow
8:33 AM 26.6 °F 13.8 °F 24.8 °F 93% 29.25 in 0.8 mi NNW 17.3 mph 33.4 mph 0.01 in Snow Light Snow
8:43 AM 26.6 °F 13.1 °F 23.0 °F 86% 29.24 in 0.8 mi NNW 19.6 mph 35.7 mph 0.01 in Snow Light Snow
8:52 AM 27.0 °F 14.3 °F 23.0 °F 85% 29.24 in 0.5 mi NNW 17.3 mph 42.6 mph 0.01 in Fog , Snow Snow
9:00 AM 26.6 °F 12.7 °F 23.0 °F 86% 29.23 in 0.2 mi NNW 20.7 mph 38.0 mph 0.01 in Fog , Snow Light Snow
9:04 AM 26.6 °F 14.3 °F 23.0 °F 86% 29.23 in 0.5 mi NNW 16.1 mph 38.0 mph 0.01 in Fog , Snow Light Snow
9:38 AM 26.6 °F 13.4 °F 23.0 °F 86% 29.23 in 0.2 mi NNW 18.4 mph 40.3 mph 0.02 in Fog , Snow Light Snow
9:52 AM 26.1 °F 13.1 °F 23.0 °F 88% 29.24 in 0.2 mi NNW 17.3 mph 35.7 mph 0.03 in Fog , Snow Snow
10:31 AM 24.8 °F 11.9 °F 23.0 °F 93% 29.24 in 0.2 mi NW 16.1 mph 29.9 mph 0.02 in Fog , Snow Snow
10:50 AM 24.8 °F 12.9 °F 23.0 °F 93% 29.25 in 0.2 mi NW 13.8 mph 38.0 mph 0.05 in Fog , Snow Heavy Snow
10:52 AM 25.0 °F 13.1 °F 23.0 °F 92% 29.26 in 0.2 mi NW 13.8 mph 31.1 mph 0.06 in Fog , Snow Heavy Snow
10:59 AM 24.8 °F 12.9 °F 23.0 °F 93% 29.25 in 0.2 mi NW 13.8 mph 31.1 mph 0.01 in Fog , Snow Snow
11:24 AM 24.8 °F 12.9 °F 21.2 °F 86% 29.25 in 0.2 mi NW 13.8 mph 29.9 mph 0.05 in Fog , Snow Snow
11:52 AM 23.0 °F 9.6 °F 21.0 °F 92% 29.28 in 0.2 mi WNW 16.1 mph 33.4 mph 0.08 in Fog , Snow Snow
12:52 PM 23.0 °F 10.1 °F 19.9 °F 88% 29.29 in 0.2 mi WNW 15.0 mph 31.1 mph 0.06 in Fog , Snow Snow
1:10 PM 21.2 °F 8.9 °F 19.4 °F 93% 29.29 in 0.2 mi WNW 12.7 mph 29.9 mph 0.01 in Fog , Snow Snow
1:19 PM 21.2 °F 6.0 °F 19.4 °F 93% 29.29 in 0.2 mi WNW 19.6 mph 32.2 mph 0.01 in Fog , Snow Snow
1:33 PM 21.2 °F 8.9 °F 19.4 °F 93% 29.30 in 0.2 mi WNW 12.7 mph 31.1 mph 0.02 in Fog , Snow Snow
1:52 PM 21.9 °F 9.2 °F 19.0 °F 89% 29.31 in 0.5 mi WNW 13.8 mph 31.1 mph 0.03 in Fog , Snow Light Snow
2:41 PM 21.2 °F 7.3 °F 17.6 °F 86% 29.34 in 0.8 mi WNW 16.1 mph 29.9 mph 0.02 in Snow Light Snow
2:52 PM 23.0 °F 9.2 °F 18.0 °F 81% 29.35 in 1.0 mi WNW 17.3 mph 31.1 mph 0.02 in Snow Light Snow
3:33 PM 21.2 °F 8.3 °F 15.8 °F 80% 29.37 in 1.8 mi WNW 13.8 mph 28.8 mph 0.01 in Snow Light Snow
3:39 PM 23.0 °F 10.6 °F 15.8 °F 74% 29.37 in 3.0 mi WNW 13.8 mph 28.8 mph 0.01 in Snow Light Snow
3:49 PM 21.2 °F 8.9 °F 12.2 °F 68% 29.38 in 1.8 mi WNW 12.7 mph 35.7 mph 0.01 in Snow Light Snow
3:50 PM 21.9 °F 9.8 °F 12.9 °F 68% 29.39 in 1.8 mi WNW 12.7 mph 35.7 mph 0.01 in Snow Light Snow
4:02 PM 21.2 °F 7.8 °F 12.2 °F 68% 29.38 in 1.0 mi WNW 15.0 mph 33.4 mph 0.00 in Snow Light Snow
4:29 PM 21.2 °F 8.3 °F 12.2 °F 68% 29.40 in 3.0 mi WNW 13.8 mph 28.8 mph 0.00 in Snow Light Snow
4:41 PM 21.2 °F 6.0 °F 12.2 °F 68% 29.41 in 1.8 mi WNW 19.6 mph 33.4 mph 0.00 in Snow Light Snow
4:52 PM 21.9 °F 8.2 °F 12.0 °F 66% 29.43 in 2.0 mi WNW 16.1 mph 38.0 mph 0.00 in Snow Light Snow
5:10 PM 21.2 °F 7.3 °F 10.4 °F 63% 29.43 in 3.0 mi WNW 16.1 mph 36.8 mph 0.00 in Snow Light Snow
5:18 PM 21.2 °F 7.8 °F 10.4 °F 63% 29.44 in 2.0 mi WNW 15.0 mph 36.8 mph 0.00 in Snow Light Snow
5:41 PM 23.0 °F 8.0 °F 10.4 °F 59% 29.46 in 4.0 mi WNW 20.7 mph 33.4 mph 0.00 in Snow Light Snow
6:32 PM 23.0 °F 8.3 °F 8.6 °F 54% 29.48 in 6.0 mi WNW 19.6 mph 43.7 mph 0.00 in   Overcast
6:52 PM 23.0 °F 8.7 °F 9.0 °F 55% 29.50 in 8.0 mi WNW 18.4 mph 35.7 mph 0.00 in   Overcast
7:52 PM 24.1 °F 11.0 °F 6.1 °F 46% 29.52 in 9.0 mi WNW 16.1 mph 35.7 mph 0.00 in   Overcast
8:52 PM 24.1 °F 12.5 °F 6.1 °F 46% 29.55 in 10.0 mi WNW 12.7 mph 32.2 mph N/A   Overcast
9:52 PM 23.0 °F 9.2 °F 3.9 °F 44% 29.57 in 10.0 mi WNW 17.3 mph 32.2 mph 0.00 in   Overcast
10:52 PM 23.0 °F 8.3 °F 1.9 °F 40% 29.59 in 10.0 mi WNW 19.6 mph 32.2 mph N/A   Overcast